Regional & State Weather Roundups


927 
ASUS44 KSHV 251910
RWRSHV
WEATHER ROUNDUP FOR THE FOUR STATE AREA
NATIONAL WEATHER SERVICE SHREVEPORT LA
200 PM CDT THU APR 25 2019
NOTE:  "FAIR" INDICATES FEW OR NO CLOUDS BELOW 12000 FEET
WITH NO SIGNIFICANT WEATHER AND/OR OBSTRUCTIONS TO VISIBILITY.
!LAZ001-LAZ014-TXZ097-252000
SHREVEPORT...MONROE...TEXARKANA RADIOS
  
CITY           SKY/WX    TMP DP  RH WIND       PRES   REMARKS
SHREVEPORT     MOSUNNY   74  60  61 NW9       29.79F                  
MONROE         PTSUNNY   75  62  64 W13       29.77S                  
NATCHITOCHES   CLOUDY    74  62  66 NW7       29.81S                  
TEXARKANA      PTSUNNY   73  60  63 NW13      29.79R                  
$$
!LAZ001-LAZ014-TXZ097-252000
OTHER LOCATIONS...
  
CITY           SKY/WX    TMP DP  RH WIND       PRES   REMARKS
DOWNTOWN SHV   MOSUNNY   76  60  57 W14       29.79F                  
BOSSIER CITY     N/A     72  61  67 W10       29.79F                  
RUSTON         PTSUNNY   73  58  60 W9        29.82F                  
LITTLE ROCK    PTSUNNY   71  63  75 NW10      29.69S                  
EL DORADO        N/A     73  62  68 W12G18    29.75F                  
JACKSON        CLOUDY    68  64  87 SW7       29.79S                  
NEW ORLEANS    RAIN      69  66  90 NE7       29.80F                  
HOUSTON        MOSUNNY   82  59  45 NW14      29.84F                  
LUFKIN         MOSUNNY   74  58  57 N8        29.83F                  
TYLER          PTSUNNY   76  53  44 NW15G24   29.83S                  
DAL FT WORTH   MOSUNNY   78  56  46 NW15      29.85R                  
$$
!TXZ136-TXZ165-252000
TYLER...LUFKIN RADIOS
  
CITY           SKY/WX    TMP DP  RH WIND       PRES   REMARKS
TYLER          PTSUNNY   76  53  44 NW15G24   29.83S                  
GILMER         MOCLDY    72  57  59 NW7G17    29.82S                  
LONGVIEW       PTSUNNY   75  61  61 NW13      29.81S                  
LUFKIN         MOSUNNY   74  58  57 N8        29.83F                  
$$
!TXZ136-TXZ165-252000
OTHER LOCATIONS...
  
CITY           SKY/WX    TMP DP  RH WIND       PRES   REMARKS
NACOGDOCHES    PTSUNNY   74  62  66 NW13G21   29.84F                  
BEAUMONT         N/A     79  59  50 NW15      29.82S                  
HOUSTON        MOSUNNY   82  59  45 NW14      29.84F                  
COLLEGE STN    SUNNY     78  61  55 NW12      29.86S                  
AUSTIN         MOSUNNY   84  57  39 NW8       29.87F                  
DAL FT WORTH   MOSUNNY   78  56  46 NW15      29.85R                  
TEXARKANA      PTSUNNY   73  60  63 NW13      29.79R                  
SHREVEPORT     MOSUNNY   74  60  61 NW9       29.79F                  
FORT POLK      PTSUNNY   73  59  61 W9        29.80F                  
LAKE CHARLES     N/A     80  62  54 NW12      29.80F                  
$$